Find Starlink 2517

NORAD ID: 48309 Int'l Des: 2021-036 Owner: SPXS Country: US Constellation: starlink operational
LEOCIRCULAR

实时位置

正在加载3D地球...

关于 Starlink 2517

正在加载描述...

即将过境

Passes for default location (London). Set your location on the main map for personalized predictions.

高度历史

Loading altitude history...

两行轨道根数

1 48309U 21036AK 26105.85803793 .00000062 00000-0 13963-4 0 9997
2 48309 53.1613 275.6542 0001614 91.5695 268.5491 15.31027719273916
Epoch: Apr 15, 2026 • Age: 6 hours

当前状态

高度 480.2 km
速度 7.63 km/s
星下点 -23.98°S, 123.44°W
发射日期 Apr 29, 2021
运行时间 4.9 years
类型 internet

技术详情

分类 Payload
质量 260.00 kg
干质量 248.00 kg
总质量 260.00 kg
长度 0.20 m
直径 2.80 m
跨度 9.00 m
形状 Box + pan
制造商 SPXS
平台类型 Starlink
阶段状态 In Orbit
所有者/国家 SPXS/US

Most Searched